time_stamp(utc),avg(mph),gust(mph),direction(deg),12m_air_temp(f),sonic_u(cm/s),sonic_v(cm/s),sonic_w(cm/s),pressure,2m_air_temp(f),pyranometer(W/m^2)
"2021-04-08 00:02:39+00",5.5,6.5,,49.3,-83,-219,1,1016,48.3,0
"2021-04-08 00:07:39+00",5.2,5.2,,49.1,-61,-208,0,1016.11,48.2,0
"2021-04-08 00:12:39+00",5.1,6.1,,49.1,-63,-204,-6,1016.12,48.2,0
"2021-04-08 00:17:39+00",5.1,6.1,,49,-46,-208,-4,1016.13,48.1,0
"2021-04-08 00:22:39+00",5.7,6.7,,49,-51,-231,-3,1016.1,48,0
"2021-04-08 00:27:39+00",5.7,6.7,,49,-56,-241,-2,1016.16,48,0
"2021-04-08 00:32:39+00",5.7,6.7,,48.9,-44,-233,-5,1016.17,48,0
"2021-04-08 00:37:39+00",5.9,6.9,,48.9,-37,-239,-8,1016.26,47.9,0
"2021-04-08 00:42:39+00",5.4,6.4,,48.9,-6,-226,-3,1016.3,48,0
"2021-04-08 00:47:39+00",5.8,6.8,,49,23,-242,-5,1016.38,48.1,0
"2021-04-08 00:52:39+00",5.5,6.5,,48.9,44,-224,-10,1016.42,47.9,0
"2021-04-08 00:57:39+00",5.6,6.6,,49,79,-224,-5,1016.5,47.8,0
"2021-04-08 01:02:39+00",5.2,6.2,,49.1,95,-194,0,1016.55,47.7,0
"2021-04-08 01:07:39+00",5.5,6.5,,49.1,94,-209,-5,1016.59,47.7,0
"2021-04-08 01:12:39+00",4.9,5.9,,49.1,103,-180,0,1016.64,47.6,0
"2021-04-08 01:17:39+00",5.6,6.6,,49,142,-192,-5,1016.7,47.6,0
"2021-04-08 01:22:39+00",5.1,6.1,,49,106,-185,3,1016.73,47.5,0
"2021-04-08 01:27:39+00",6.2,7.2,,49,136,-224,-4,1016.82,47.4,0
"2021-04-08 01:32:39+00",6.3,6.3,,49,131,-231,0,1016.83,47.3,0
"2021-04-08 01:37:39+00",6.9,7.9,,48.9,156,-264,-4,1016.91,47.3,0
"2021-04-08 01:42:39+00",6.7,7.7,,48.9,157,-248,-4,1016.87,47.4,0
"2021-04-08 01:47:39+00",6.6,7.6,,48.9,153,-242,2,1017.07,47.4,0
"2021-04-08 01:52:39+00",6.7,6.7,,48.8,117,-255,-2,1017.03,47.3,0
"2021-04-08 01:57:39+00",6.4,7.4,,48.8,96,-254,-5,1017.05,47.2,0
"2021-04-08 02:02:39+00",6.2,6.2,,48.7,107,-240,-4,1017.14,47.1,0
"2021-04-08 02:07:39+00",6.7,7.7,,48.7,191,-210,-2,1017.15,47,0
"2021-04-08 02:12:39+00",6.8,7.8,,48.6,212,-198,-1,1017.1,46.8,0
"2021-04-08 02:17:39+00",6.7,7.7,,48.6,211,-196,2,1017.16,46.6,0
"2021-04-08 02:22:39+00",6.3,7.3,,48.6,195,-184,0,1017.14,46.6,0
"2021-04-08 02:27:39+00",6.3,7.3,,48.5,206,-177,5,1017.26,46.5,0
"2021-04-08 02:32:39+00",6.3,6.3,,48.4,231,-152,2,1017.31,46.4,0
"2021-04-08 02:37:39+00",7.0,7.0,,48.5,279,-145,10,1017.4,46.3,0
"2021-04-08 02:42:39+00",6.7,7.7,,48.5,278,-112,10,1017.36,46.3,0
"2021-04-08 02:47:39+00",7.5,7.5,,48.6,316,-120,10,1017.37,46.3,0
"2021-04-08 02:52:39+00",7.4,8.4,,48.6,304,-119,7,1017.32,46.3,0
"2021-04-08 02:57:39+00",7.8,8.8,,48.6,332,-123,5,1017.33,46.3,0
"2021-04-08 03:02:39+00",7.9,8.9,,48.6,328,-120,7,1017.32,46.3,0
"2021-04-08 03:07:39+00",7.0,7.0,,48.4,302,-67,13,1017.46,46.4,0
"2021-04-08 03:12:39+00",7.2,8.2,,48.3,321,-42,11,1017.52,46.4,0
"2021-04-08 03:17:39+00",6.7,6.7,,48.1,295,-17,18,1017.63,46.3,0
"2021-04-08 03:22:39+00",7.6,7.6,,48.1,334,1,26,1017.7,46.2,0
"2021-04-08 03:27:39+00",6.8,7.8,,48,305,20,18,1017.69,46.1,0
"2021-04-08 03:32:39+00",7.2,8.2,,47.9,325,19,20,1017.75,46.1,0
"2021-04-08 03:37:39+00",5.9,6.9,,47.9,262,-13,12,1017.88,46,0
"2021-04-08 03:42:39+00",5.4,6.4,,47.9,236,-43,8,1017.97,46,0
"2021-04-08 03:47:39+00",6.0,7.0,,48.1,257,-67,1,1018.03,46,0
"2021-04-08 03:52:39+00",5.9,6.9,,48.3,236,-93,4,1018,46.1,0
"2021-04-08 03:57:39+00",6.2,7.2,,48.4,256,-97,4,1017.91,46.2,0
"2021-04-08 04:02:39+00",6.8,7.8,,48.5,280,-106,6,1017.93,46.2,0
"2021-04-08 04:07:39+00",7.6,8.6,,48.5,326,-102,8,1017.9,46.3,0
"2021-04-08 04:12:39+00",8.6,9.6,,48.6,372,-109,11,1017.8,46.3,0
"2021-04-08 04:17:39+00",8.5,9.5,,48.5,365,-112,4,1017.8,46.5,0
"2021-04-08 04:22:39+00",8.6,9.6,,48.6,362,-116,7,1017.88,46.6,0
"2021-04-08 04:27:39+00",8.1,9.1,,48.6,344,-116,5,1017.86,46.8,0
"2021-04-08 04:32:39+00",7.9,8.9,,48.6,343,-94,8,1017.93,46.8,0
"2021-04-08 04:37:39+00",8.4,9.4,,48.7,368,-86,10,1017.92,46.8,0
"2021-04-08 04:42:39+00",8.3,9.3,,48.7,362,-83,13,1017.95,46.8,0
"2021-04-08 04:47:39+00",8.2,9.2,,48.7,356,-88,12,1017.96,46.8,0
"2021-04-08 04:52:39+00",7.2,8.2,,48.7,312,-66,12,1017.99,46.8,0
"2021-04-08 04:57:39+00",5.6,6.6,,48.6,240,-44,5,1017.96,46.7,0
"2021-04-08 05:02:39+00",4.9,5.9,,48.6,211,-21,8,1018.01,46.6,0
"2021-04-08 05:07:39+00",5.1,6.1,,48.4,226,-17,14,1018.07,46.4,0
"2021-04-08 05:12:39+00",5.4,5.4,,48.5,236,-17,13,1018.09,46.2,0
"2021-04-08 05:17:39+00",5.3,6.3,,48.5,231,-36,9,1018.02,46.1,0
"2021-04-08 05:22:39+00",6.7,6.7,,48.6,292,-41,8,1017.99,46,0
"2021-04-08 05:27:39+00",6.2,6.2,,48.6,270,-42,11,1017.9,46.1,0
"2021-04-08 05:32:39+00",5.7,6.7,,48.5,244,-32,13,1017.88,46,0
"2021-04-08 05:37:39+00",6.3,7.3,,48.4,276,-26,10,1017.7,46,0
"2021-04-08 05:42:39+00",6.5,7.5,,48.3,282,-27,12,1017.66,46,0
"2021-04-08 05:47:39+00",8.7,9.7,,48.2,388,-8,26,1017.53,46,0
"2021-04-08 05:52:39+00",9.8,10.8,,48.3,441,0,30,1017.43,45.9,0
"2021-04-08 05:57:39+00",10.1,11.1,,48.2,454,9,24,1017.36,46,0
"2021-04-08 06:02:39+00",9.3,10.3,,48.1,410,0,31,1017.21,46.2,0
"2021-04-08 06:07:39+00",9.2,10.2,,48.1,409,24,24,1017.35,46.2,0
"2021-04-08 06:12:39+00",7.8,8.8,,48.1,343,27,31,1017.32,46.2,0
"2021-04-08 06:17:39+00",7.8,8.8,,48.2,348,37,28,1017.34,46.2,0
"2021-04-08 06:22:39+00",6.6,8.6,,48.2,288,48,19,1017.4,46.1,0
"2021-04-08 06:27:39+00",6.4,8.4,,48.1,285,42,17,1017.35,46.1,0
"2021-04-08 06:32:39+00",7.2,8.2,,48.2,316,36,19,1017.36,45.9,0
"2021-04-08 06:37:39+00",6.5,7.5,,48.1,283,20,11,1017.35,45.8,0
"2021-04-08 06:42:39+00",6.2,7.2,,48,263,29,18,1017.41,45.7,0
"2021-04-08 06:47:39+00",5.1,6.1,,48,211,61,17,1017.48,45.6,0
"2021-04-08 06:52:39+00",6.0,7.0,,48,254,76,15,1017.47,45.4,0
"2021-04-08 06:57:39+00",6.1,6.1,,48.1,265,50,14,1017.52,45.3,0
"2021-04-08 07:02:39+00",4.4,5.4,,48.1,189,34,7,1017.6,45.1,0
"2021-04-08 07:07:39+00",4.7,4.7,,48,198,56,11,1017.68,45,0
"2021-04-08 07:12:39+00",5.4,6.4,,48.1,237,37,12,1017.68,44.8,0
"2021-04-08 07:17:39+00",5.2,6.2,,48.2,224,37,12,1017.63,44.7,0
"2021-04-08 07:22:39+00",5.3,5.3,,48.3,220,57,15,1017.72,44.6,0
"2021-04-08 07:27:39+00",5.4,6.4,,48.3,229,53,14,1017.79,44.6,0
"2021-04-08 07:32:39+00",4.2,5.2,,48.5,171,57,8,1017.88,44.5,0
"2021-04-08 07:37:39+00",3.3,4.3,,48.6,122,67,1,1018.14,44.6,0
"2021-04-08 07:42:39+00",3.6,3.6,,48.9,129,81,-1,1018.13,45.1,0
"2021-04-08 07:47:39+00",3.0,3.0,,49.1,108,59,3,1018.15,45.3,0
"2021-04-08 07:52:39+00",2.8,2.8,,49.2,95,61,3,1018.27,45.4,0
"2021-04-08 07:57:39+00",2.3,2.3,,49.2,71,55,2,1018.25,45.5,0
"2021-04-08 08:02:39+00",2.6,2.6,,49.3,89,53,1,1018.37,45.5,0
"2021-04-08 08:07:39+00",2.9,2.9,,49.3,108,50,0,1018.38,45.7,0
"2021-04-08 08:12:39+00",2.5,2.5,,49.5,90,45,0,1018.32,45.9,0
"2021-04-08 08:17:39+00",2.4,2.4,,49.5,82,47,-1,1018.31,45.9,0
"2021-04-08 08:22:39+00",2.9,2.9,,49.5,111,43,0,1018.49,46,0
"2021-04-08 08:27:39+00",3.4,3.4,,49.6,132,60,2,1018.46,45.9,0
"2021-04-08 08:32:39+00",4.0,4.0,,49.7,163,57,9,1018.59,45.7,0
"2021-04-08 08:37:39+00",4.0,4.0,,49.8,162,55,8,1018.64,45.5,0
"2021-04-08 08:42:39+00",4.0,4.0,,49.7,154,80,-3,1018.71,45.4,0
"2021-04-08 08:47:39+00",4.5,4.5,,49.6,178,82,6,1018.72,45.4,0
"2021-04-08 08:52:39+00",4.7,4.7,,49.6,192,85,13,1018.75,45.2,0
"2021-04-08 08:57:39+00",4.0,4.0,,49.7,155,65,8,1018.81,45,0
"2021-04-08 09:02:39+00",4.0,4.0,,49.8,152,62,2,1018.85,45,0
"2021-04-08 09:07:39+00",3.9,3.9,,49.9,150,66,1,1018.87,45,0
"2021-04-08 09:12:39+00",4.2,5.2,,49.8,164,64,5,1018.86,45.2,0
"2021-04-08 09:17:39+00",5.5,6.5,,49.7,236,46,13,1018.93,45.1,0
"2021-04-08 09:22:39+00",5.9,5.9,,49.6,253,55,17,1018.96,44.9,0
"2021-04-08 09:27:39+00",6.3,6.3,,49.5,272,30,25,1018.94,44.7,0
"2021-04-08 09:32:39+00",6.9,6.9,,49.5,301,31,25,1018.82,44.6,0
"2021-04-08 09:37:39+00",8.0,8.0,,49.6,350,29,28,1018.85,44.6,0
"2021-04-08 09:42:39+00",8.7,9.7,,49.5,386,41,32,1018.87,44.6,0
"2021-04-08 09:47:39+00",10.2,11.2,,49.3,455,51,36,1018.91,44.5,0
"2021-04-08 09:52:39+00",9.9,9.9,,49,443,37,34,1018.83,44.5,0
"2021-04-08 09:57:39+00",10.2,11.2,,48.7,449,56,33,1018.76,44.6,0
"2021-04-08 10:02:39+00",9.8,10.8,,48.4,442,44,30,1018.79,44.8,0
"2021-04-08 10:07:39+00",8.9,9.9,,48.3,399,36,26,1018.8,45,0
"2021-04-08 10:12:39+00",8.8,9.8,,48.3,391,33,29,1018.86,45.2,0
"2021-04-08 10:17:39+00",9.8,10.8,,48.2,435,34,32,1018.82,45.2,0
"2021-04-08 10:22:39+00",10.1,11.1,,48.1,453,14,27,1018.83,45.4,0
"2021-04-08 10:27:39+00",10.5,11.5,,48.2,472,2,30,1018.81,45.6,0
"2021-04-08 10:32:39+00",9.5,10.5,,48.2,436,2,25,1018.91,45.8,0
"2021-04-08 10:37:39+00",9.3,10.3,,48.2,412,12,26,1018.93,45.9,0
"2021-04-08 10:42:39+00",9.5,10.5,,48.3,428,22,27,1018.89,46.1,0
"2021-04-08 10:47:39+00",9.0,10.0,,48.2,410,26,22,1018.89,46.3,0
"2021-04-08 10:52:39+00",9.4,10.4,,48.4,421,30,23,1018.95,46.6,0
"2021-04-08 10:57:39+00",9.0,10.0,,48.5,403,50,24,1019.03,46.9,0
"2021-04-08 11:02:39+00",8.3,10.3,,48.6,367,64,23,1019.15,47.3,0
"2021-04-08 11:07:39+00",8.1,9.1,,48.8,358,72,28,1019.22,47.8,0
"2021-04-08 11:12:39+00",7.5,8.5,,49,332,56,18,1019.23,48.4,0
"2021-04-08 11:17:39+00",6.5,7.5,,49.2,289,41,19,1019.36,49,0
"2021-04-08 11:22:39+00",6.8,7.8,,49.3,300,21,19,1019.45,49.7,0
"2021-04-08 11:27:39+00",7.1,8.1,,49.4,313,26,20,1019.54,49.9,0
"2021-04-08 11:32:39+00",7.0,8.0,,49.3,318,30,26,1019.51,50.2,0
"2021-04-08 11:37:39+00",8.6,9.6,,49.3,375,57,20,1019.41,50.6,0
"2021-04-08 11:42:39+00",8.1,10.1,,49.3,361,52,25,1019.5,51,0
"2021-04-08 11:47:39+00",7.8,8.8,,49.4,342,47,42,1019.51,51.5,0
"2021-04-08 11:52:39+00",8.4,9.4,,49.5,374,58,34,1019.55,52,0
"2021-04-08 11:57:39+00",8.5,10.5,,49.6,385,48,20,1019.5,52.6,0
"2021-04-08 12:02:39+00",8.5,9.5,,49.7,386,37,6,1019.54,53,0
"2021-04-08 12:07:39+00",8.0,10.0,,50,367,22,13,1019.56,53.4,0
"2021-04-08 12:12:39+00",6.8,8.8,,50.4,302,2,31,1019.62,53.1,0
"2021-04-08 12:17:39+00",8.7,10.7,,50.6,391,11,31,1019.64,53.2,0
"2021-04-08 12:22:39+00",8.0,9.0,,50.8,351,9,48,1019.68,53.6,0
"2021-04-08 12:27:39+00",7.3,8.3,,51,324,3,15,1019.76,54,0
"2021-04-08 12:32:39+00",7.2,9.2,,51.3,332,-57,11,1019.71,54.2,0
"2021-04-08 12:37:39+00",7.3,8.3,,51.4,330,-29,16,1019.72,53.8,0
"2021-04-08 12:42:39+00",8.2,9.2,,51.8,368,-20,18,1019.62,53.9,0
"2021-04-08 12:47:39+00",8.0,9.0,,51.9,350,-7,32,1019.6,54,0
"2021-04-08 12:52:39+00",8.9,9.9,,52.2,396,-25,13,1019.68,54.3,0
"2021-04-08 12:57:39+00",8.0,9.0,,52.3,351,-54,12,1019.68,54.5,0
"2021-04-08 13:02:39+00",8.6,9.6,,52.3,376,-48,35,1019.7,54.7,0
"2021-04-08 13:07:39+00",8.9,9.9,,52.3,394,-56,33,1019.68,54.8,0
"2021-04-08 13:12:39+00",8.8,10.8,,52.2,391,-42,40,1019.65,54.8,0
"2021-04-08 13:17:39+00",10.1,12.1,,52.2,454,-27,2,1019.73,54.7,0
"2021-04-08 13:22:39+00",9.7,11.7,,52.3,434,-14,11,1019.76,54.8,0
"2021-04-08 13:27:39+00",11.3,12.3,,52.2,510,24,45,1019.78,54.9,0
"2021-04-08 13:32:39+00",10.9,11.9,,52,488,-86,6,1019.77,54.7,0
"2021-04-08 13:37:39+00",12.0,13.0,,52,537,42,38,1019.72,55.4,0
"2021-04-08 13:42:39+00",10.8,12.8,,52,476,-11,16,1019.72,55.5,0
"2021-04-08 13:47:39+00",10.4,11.4,,52.3,481,-40,55,1019.7,55.7,0
"2021-04-08 13:52:39+00",11.6,13.6,,51.9,516,50,5,1019.69,56.2,0
"2021-04-08 13:57:39+00",10.5,12.5,,51.9,469,25,18,1019.83,56.5,0
"2021-04-08 14:02:39+00",9.4,10.4,,52.2,411,-95,52,1019.87,56.3,0
"2021-04-08 14:07:39+00",11.6,12.6,,52,513,-110,-9,1019.88,55.5,0
"2021-04-08 14:12:39+00",12.2,14.2,,52.2,549,29,20,1019.9,55.5,0
"2021-04-08 14:17:39+00",12.0,13.0,,52.5,546,-8,51,1019.92,55.7,0
"2021-04-08 14:22:39+00",12.7,13.7,,52.3,567,-36,10,1019.97,55.7,0
"2021-04-08 14:27:39+00",11.7,13.7,,52.4,525,-15,45,1019.95,55.9,0
"2021-04-08 14:32:39+00",12.9,14.9,,52.4,581,-32,19,1019.91,56.1,0
"2021-04-08 14:37:39+00",11.5,12.5,,52.4,520,-16,45,1019.98,55.8,0
"2021-04-08 14:42:39+00",11.3,13.3,,52.4,508,-63,42,1020.07,56,0
"2021-04-08 14:47:39+00",10.9,11.9,,52.1,478,-87,16,1020.06,55.4,0
"2021-04-08 14:52:39+00",12.1,14.1,,52,540,5,23,1020.07,55.5,0
"2021-04-08 14:57:39+00",10.0,11.0,,52.3,446,1,35,1020.06,56,0
"2021-04-08 15:02:39+00",10.5,11.5,,52.5,463,-74,54,1020.12,56.5,0
"2021-04-08 15:07:39+00",12.4,14.4,,52.4,543,-123,-12,1020.02,56.6,0
"2021-04-08 15:12:39+00",11.4,13.4,,52.2,508,-59,28,1020.1,56,0
"2021-04-08 15:17:39+00",11.6,12.6,,52.4,509,-142,5,1020.02,56.2,0
"2021-04-08 15:22:39+00",11.7,14.7,,52.4,492,-178,5,1020.06,56,0
"2021-04-08 15:27:39+00",11.9,12.9,,52.2,519,-121,-13,1019.98,55.7,0
"2021-04-08 15:32:39+00",14.4,16.4,,52.1,623,-192,-15,1019.89,55.7,0
"2021-04-08 15:37:39+00",12.0,14.0,,52.5,519,-167,17,1019.83,56,0
"2021-04-08 15:42:39+00",12.1,13.1,,52.4,497,-229,-9,1019.88,56.1,0
"2021-04-08 15:47:39+00",11.6,12.6,,52.3,504,-115,8,1019.85,56.2,0
"2021-04-08 15:52:39+00",11.6,12.6,,52.3,447,-265,-9,1019.97,56.5,0
"2021-04-08 15:57:39+00",11.8,13.8,,52.2,459,-272,-12,1019.86,56.5,0
"2021-04-08 16:02:39+00",11.1,12.1,,52.2,448,-208,23,1019.83,56.2,0
"2021-04-08 16:07:39+00",12.2,14.2,,52.3,483,-272,16,1019.81,56.4,0
"2021-04-08 16:12:39+00",12.2,13.2,,52.2,477,-274,6,1019.69,56.6,0
"2021-04-08 16:17:39+00",12.2,14.2,,52.3,459,-288,-11,1019.68,56.6,0
"2021-04-08 16:22:39+00",10.4,12.4,,52,405,-224,0,1019.62,56.2,0
"2021-04-08 16:27:39+00",10.4,11.4,,52.1,428,-194,-15,1019.66,56.2,0
"2021-04-08 16:32:39+00",9.5,12.5,,52.3,372,-206,-14,1019.73,56.2,0
"2021-04-08 16:37:39+00",9.5,11.5,,52.4,369,-197,28,1019.62,56.2,0
"2021-04-08 16:42:39+00",9.9,11.9,,52.7,315,-306,-5,1019.62,56.5,0
"2021-04-08 16:47:39+00",8.5,10.5,,52.5,314,-195,15,1019.69,56.4,0
"2021-04-08 16:52:39+00",7.9,8.9,,52.6,295,-192,5,1019.74,56.3,0
"2021-04-08 16:57:39+00",7.3,9.3,,53.2,70,-294,-22,1019.77,56.2,0
"2021-04-08 17:02:39+00",7.3,10.3,,53.9,-29,-313,-10,1019.76,56.2,0
"2021-04-08 17:07:39+00",8.1,9.1,,53.6,105,-329,-1,1019.74,55.9,0
"2021-04-08 17:12:39+00",9.3,10.3,,53.2,256,-315,-8,1019.62,55.9,0
"2021-04-08 17:17:39+00",8.8,9.8,,53,219,-315,-17,1019.48,56,0
"2021-04-08 17:22:39+00",7.8,8.8,,53.2,111,-311,-7,1019.58,56.1,0
"2021-04-08 17:27:39+00",7.0,8.0,,53.8,115,-272,13,1019.47,56.5,0
"2021-04-08 17:32:39+00",8.3,9.3,,53.6,235,-278,-4,1019.5,56.8,0
"2021-04-08 17:37:39+00",7.6,9.6,,54,136,-289,9,1019.46,56.7,0
"2021-04-08 17:42:39+00",8.0,9.0,,53.8,128,-313,-15,1019.45,56.6,0
"2021-04-08 17:47:39+00",8.0,10.0,,53.6,70,-318,22,1019.46,56.2,0
"2021-04-08 17:52:39+00",9.2,11.2,,54,103,-381,5,1019.42,56.4,0
"2021-04-08 17:57:39+00",8.0,10.0,,54.2,131,-309,36,1019.36,56.7,0
"2021-04-08 18:02:39+00",8.4,10.4,,54,113,-353,-11,1019.31,56.5,0
"2021-04-08 18:07:39+00",7.8,9.8,,54,101,-305,9,1019.28,56.2,0
"2021-04-08 18:12:39+00",8.6,10.6,,53.9,124,-342,-4,1019.25,56.5,0
"2021-04-08 18:17:39+00",8.1,11.1,,53.8,134,-291,34,1019.11,56.3,0
"2021-04-08 18:22:39+00",9.6,10.6,,53.6,155,-384,-18,1019.04,56.2,0
"2021-04-08 18:27:39+00",8.7,10.7,,53.7,158,-341,-16,1019.06,56.3,0
"2021-04-08 18:32:39+00",7.5,9.5,,53.9,116,-278,7,1019.01,56.4,0
"2021-04-08 18:37:39+00",7.5,8.5,,54.2,166,-284,6,1018.97,56.7,0
"2021-04-08 18:42:39+00",7.6,9.6,,54.7,94,-301,-7,1018.92,57.1,0
"2021-04-08 18:47:39+00",7.4,8.4,,55,66,-313,-33,1019,57.2,0
"2021-04-08 18:52:39+00",5.9,7.9,,56.1,34,-242,11,1018.9,58,0
"2021-04-08 18:57:39+00",7.3,9.3,,56,89,-288,2,1018.79,57.8,0
"2021-04-08 19:02:39+00",6.2,7.2,,56.6,48,-245,1,1018.77,58.2,0
"2021-04-08 19:07:39+00",7.7,9.7,,56.8,86,-297,7,1018.62,58.5,0
"2021-04-08 19:12:39+00",8.0,10.0,,56.4,135,-305,3,1018.43,58.9,0
"2021-04-08 19:17:39+00",8.8,9.8,,56.1,127,-358,-15,1018.42,58.6,0
"2021-04-08 19:22:39+00",7.4,8.4,,56.1,65,-301,-4,1018.43,58.5,0
"2021-04-08 19:27:39+00",6.8,8.8,,56.4,72,-259,-4,1018.49,58.7,0
"2021-04-08 19:32:39+00",8.5,10.5,,56.1,129,-331,-5,1018.42,58.3,0
"2021-04-08 19:37:39+00",8.4,10.4,,56,127,-330,1,1018.34,58.2,0
"2021-04-08 19:42:39+00",8.4,10.4,,56.2,148,-341,-7,1018.37,58.5,0
"2021-04-08 19:47:39+00",10.6,11.6,,55.9,213,-409,-34,1018.38,58.5,0
"2021-04-08 19:52:39+00",8.4,11.4,,55.8,150,-326,20,1018.36,58.3,0
"2021-04-08 19:57:39+00",11.4,13.4,,55.8,235,-452,-5,1018.39,58.1,0
"2021-04-08 20:02:39+00",11.7,12.7,,55.1,233,-463,-25,1018.45,57.5,0
"2021-04-08 20:07:39+00",11.1,12.1,,54.4,158,-449,-28,1018.45,57,0
"2021-04-08 20:12:39+00",10.8,12.8,,54.2,225,-408,17,1018.54,56.7,0
"2021-04-08 20:17:39+00",11.3,13.3,,53.7,206,-447,-15,1018.51,56.4,0
"2021-04-08 20:22:39+00",10.7,13.7,,53.8,141,-433,-29,1018.54,56,0
"2021-04-08 20:27:39+00",8.9,10.9,,53.8,123,-345,24,1018.6,55.8,0
"2021-04-08 20:32:39+00",11.3,12.3,,53.5,185,-457,-26,1018.56,55.5,0
"2021-04-08 20:37:39+00",10.6,12.6,,53.6,146,-437,-36,1018.54,55.4,0
"2021-04-08 20:42:39+00",10.4,11.4,,53.3,133,-428,-20,1018.59,55.3,0
"2021-04-08 20:47:39+00",9.4,12.4,,53.4,107,-372,2,1018.62,55.4,0
"2021-04-08 20:52:39+00",10.4,11.4,,53.6,169,-397,-4,1018.53,55.5,0
"2021-04-08 20:57:39+00",9.0,10.0,,53.5,151,-351,12,1018.44,55.5,0
"2021-04-08 21:02:39+00",8.7,10.7,,53.7,111,-339,6,1018.4,55.6,0
"2021-04-08 21:07:39+00",8.0,11.0,,53.8,101,-342,-9,1018.52,55.4,0
"2021-04-08 21:12:39+00",7.5,8.5,,54.2,28,-313,-20,1018.58,55.6,0
"2021-04-08 21:17:39+00",6.3,8.3,,54.7,16,-247,4,1018.51,56,0
"2021-04-08 21:22:39+00",6.4,8.4,,55.1,26,-265,-4,1018.58,56.3,0
"2021-04-08 21:27:39+00",7.5,8.5,,55.3,48,-315,-23,1018.45,56.5,0
"2021-04-08 21:32:39+00",7.7,9.7,,54.8,102,-305,-2,1018.56,56.3,0
"2021-04-08 21:37:39+00",6.9,7.9,,54.8,7,-282,-34,1018.68,56,0
"2021-04-08 21:42:39+00",5.9,7.9,,55.2,16,-241,3,1018.73,56.2,0
"2021-04-08 21:47:39+00",6.1,7.1,,55.3,23,-248,2,1018.74,56.1,0
"2021-04-08 21:52:39+00",6.4,8.4,,55.4,59,-261,-9,1018.79,56.5,0
"2021-04-08 21:57:39+00",7.5,8.5,,54.7,87,-318,-12,1018.77,56,0
"2021-04-08 22:02:39+00",7.5,8.5,,54.3,132,-293,-2,1018.71,55.6,0
"2021-04-08 22:07:39+00",8.3,9.3,,54.1,168,-321,6,1018.72,55.4,0
"2021-04-08 22:12:39+00",7.5,8.5,,53.7,105,-299,-10,1018.73,55,0
"2021-04-08 22:17:39+00",8.4,10.4,,53.5,94,-349,-6,1018.76,54.6,0
"2021-04-08 22:22:39+00",8.4,9.4,,53,116,-328,-11,1018.7,54.2,0
"2021-04-08 22:27:39+00",8.5,10.5,,52.8,142,-331,-22,1018.71,53.8,0
"2021-04-08 22:32:39+00",8.2,9.2,,52.6,154,-315,-11,1018.71,53.6,0
"2021-04-08 22:37:39+00",7.7,8.7,,52.5,117,-301,13,1018.71,53.5,0
"2021-04-08 22:42:39+00",6.5,8.5,,52.4,78,-254,14,1018.69,53.4,0
"2021-04-08 22:47:39+00",6.6,9.6,,52.2,86,-274,6,1018.74,53.1,0
"2021-04-08 22:52:39+00",8.0,9.0,,51.9,90,-339,-21,1018.71,52.7,0
"2021-04-08 22:57:39+00",7.8,9.8,,51.6,93,-299,1,1018.73,52.3,0
"2021-04-08 23:02:39+00",8.1,9.1,,51.4,59,-337,-14,1018.81,51.9,0
"2021-04-08 23:07:39+00",6.7,7.7,,51.3,57,-281,-9,1018.76,51.5,0
"2021-04-08 23:12:39+00",6.9,8.9,,51.1,46,-287,-5,1018.78,51.3,0
"2021-04-08 23:17:39+00",5.4,8.4,,50.9,56,-212,4,1018.7,51.1,0
"2021-04-08 23:22:39+00",8.0,9.0,,50.8,112,-331,-19,1018.58,50.9,0
"2021-04-08 23:27:39+00",7.0,8.0,,50.7,61,-297,-13,1018.69,50.7,0
"2021-04-08 23:32:39+00",5.9,6.9,,50.6,28,-242,3,1018.7,50.5,0
"2021-04-08 23:37:39+00",6.8,7.8,,50.6,25,-282,-10,1018.73,50.4,0
"2021-04-08 23:42:39+00",6.7,7.7,,50.5,17,-280,-13,1018.62,50.2,0
"2021-04-08 23:47:39+00",5.9,6.9,,50.4,43,-244,-7,1018.58,50.1,0
"2021-04-08 23:52:39+00",6.5,7.5,,50.4,51,-271,-8,1018.54,50.1,0
"2021-04-08 23:57:39+00",6.6,7.6,,50.5,53,-271,-9,1018.56,50,0
